Location: Mount Cross
(36.6390°N, 79.4878°W)
Time: 11:04:29
(UTC+00:00)

Tiros 1 - All Passes

Search period start: 29 March 2023 00:00
Search period end: 08 April 2023 00:00
Orbit: 627 x 662 km, 48.4° (Epoch: 28 March)

Date Brightness Start Highest point End Pass type
(mag) Time Alt. Az. Time Alt. Az. Time Alt. Az.
29 Mar - 06:44:24 10° SE 06:44:54 10° SE 06:45:23 10° ESE night (unlit)
29 Mar - 08:21:36 10° SW 08:26:20 66° SE 08:31:06 10° ENE visible
29 Mar - 10:04:27 10° W 10:08:46 32° NNW 10:13:04 10° NE visible
29 Mar - 11:48:31 10° NW 11:52:01 20° N 11:55:32 10° NE daylight
29 Mar - 13:31:11 10° NW 13:35:21 29° NNE 13:39:30 10° E daylight
29 Mar - 15:13:07 10° NW 15:17:55 82° SW 15:22:38 10° SE daylight
29 Mar - 16:57:12 10° W 16:59:27 13° SW 17:01:42 10° SSW daylight
30 Mar - 07:05:45 10° S 07:09:39 26° SE 07:13:36 10° ENE visible
30 Mar - 08:46:49 10° WSW 08:51:32 60° NNW 08:56:18 10° NE visible
30 Mar - 10:30:36 10° WNW 10:34:25 23° NNW 10:38:15 10° NE visible
30 Mar - 12:14:11 10° NW 12:17:51 21° N 12:21:29 10° ENE daylight
30 Mar - 13:56:15 10° NW 14:00:53 46° NNE 14:05:28 10° ESE daylight
30 Mar - 15:38:36 10° WNW 15:42:58 36° SW 15:47:16 10° SSE daylight
31 Mar - 07:29:57 10° SW 07:34:37 59° SE 07:39:20 10° ENE visible
31 Mar - 09:12:37 10° W 09:16:59 34° NNW 09:21:22 10° NE visible
31 Mar - 10:56:42 10° NW 11:00:13 20° N 11:03:44 10° NE daylight
31 Mar - 12:39:27 10° NW 12:43:34 27° NNE 12:47:39 10° ENE daylight
31 Mar - 14:21:23 10° NW 14:26:11 90° WNW 14:30:56 10° SE daylight
31 Mar - 16:05:03 10° W 16:07:48 15° SW 16:10:32 10° SSW daylight
01 Apr - 06:14:17 10° S 06:17:59 23° SE 06:21:42 10° E night (unlit)
01 Apr - 07:55:03 10° WSW 07:59:47 66° NNW 08:04:35 10° NE visible
01 Apr - 09:38:44 10° WNW 09:42:37 24° NNW 09:46:30 10° NE visible
01 Apr - 11:22:25 10° NW 11:26:01 21° N 11:29:38 10° NE daylight
01 Apr - 13:04:32 10° NW 13:09:07 43° NNE 13:13:40 10° E daylight
01 Apr - 14:46:47 10° WNW 14:51:16 40° SW 14:55:42 10° SSE daylight
02 Apr - 06:38:18 10° SW 06:42:53 52° SE 06:47:33 10° ENE visible
02 Apr - 08:20:47 10° W 08:25:12 36° NNW 08:29:39 10° NE visible
02 Apr - 10:04:51 10° NW 10:08:23 20° N 10:11:56 10° NE visible
02 Apr - 11:47:43 10° NW 11:51:46 26° NNE 11:55:47 10° ENE daylight
02 Apr - 13:29:38 10° NW 13:34:27 82° NE 13:39:13 10° ESE daylight
02 Apr - 15:12:59 10° W 15:16:08 17° SW 15:19:14 10° S daylight
03 Apr - 05:22:52 10° S 05:26:17 20° SE 05:29:45 10° E night (unlit)
03 Apr - 07:03:18 10° WSW 07:08:02 73° NW 07:12:50 10° NE visible
03 Apr - 08:46:51 10° WNW 08:50:48 25° NNW 08:54:46 10° NE visible
03 Apr - 10:30:37 10° NW 10:34:12 20° N 10:37:46 10° NE visible
03 Apr - 12:12:48 10° NW 12:17:20 40° NNE 12:21:49 10° E daylight
03 Apr - 13:54:58 10° WNW 13:59:33 46° SW 14:04:05 10° SSE daylight
04 Apr - 05:46:40 10° SSW 05:51:11 46° SE 05:55:45 10° ENE night (unlit)
04 Apr - 07:28:56 10° W 07:33:24 39° NNW 07:37:55 10° NE visible
04 Apr - 09:12:59 10° NW 09:16:33 20° N 09:20:07 10° NE visible
04 Apr - 10:55:58 10° NW 10:59:56 25° NNE 11:03:54 10° ENE daylight
04 Apr - 12:37:53 10° NW 12:42:41 74° NE 12:47:28 10° ESE daylight
04 Apr - 14:20:59 10° W 14:24:26 20° SW 14:27:51 10° S daylight
05 Apr - 04:31:29 10° S 04:34:36 18° SE 04:37:45 10° E night (unlit)
05 Apr - 06:11:32 10° WSW 06:16:16 81° NW 06:21:05 10° NE visible
05 Apr - 07:54:58 10° WNW 07:58:58 26° NNW 08:03:00 10° NE visible
05 Apr - 09:38:48 10° NW 09:42:21 20° N 09:45:53 10° NE visible
05 Apr - 11:21:04 10° NW 11:25:31 37° NNE 11:29:58 10° E daylight
05 Apr - 13:03:09 10° WNW 13:07:49 51° SW 13:12:25 10° SE daylight
06 Apr - 04:55:02 10° SSW 04:59:26 41° SE 05:03:55 10° ENE night (unlit)
06 Apr - 06:37:05 10° W 06:41:35 42° NNW 06:46:09 10° NE visible
06 Apr - 08:21:06 10° NW 08:24:42 20° N 08:28:17 10° NE visible
06 Apr - 10:04:12 10° NW 10:08:06 24° NNE 10:11:59 10° ENE visible
06 Apr - 11:46:06 10° NW 11:50:54 67° NNE 11:55:40 10° ESE daylight
06 Apr - 13:29:01 10° W 13:32:43 22° SW 13:36:24 10° S daylight
07 Apr - 03:40:09 10° SSE 03:42:54 15° SE 03:45:39 10° E night (unlit)
07 Apr - 05:19:46 10° SW 05:24:30 89° NW 05:29:18 10° NE night (unlit)
07 Apr - 07:03:05 10° WNW 07:07:08 27° NNW 07:11:13 10° NE visible
07 Apr - 08:46:59 10° NW 08:50:29 20° N 08:54:00 10° NE visible
07 Apr - 10:29:18 10° NW 10:33:42 34° NNE 10:38:05 10° E visible
07 Apr - 12:11:20 10° WNW 12:16:03 58° SW 12:20:44 10° SE daylight
